Alpine, TX

6:28 PM CST on February 24, 2018 (GMT -0600)
Alpine

Weather History for KE38 - June, 2014

Change the Weather History Date:

Monday, June 2, 2014

  Actual Average (KMRF) Record (KMRF)
Temperature  
Mean Temperature 87 °F -  
Max Temperature 103 °F 86 °F 100 °F (2014)
Min Temperature 72 °F 55 °F 51 °F (2006)
Cooling Degree Days 22    
Growing Degree Days 37 (Base 50)    
Moisture  
Dew Point 42 °F    
Average Humidity 28    
Maximum Humidity 50    
Minimum Humidity 5    
Precipitation  
Precipitation 0.00 in - - ()
Sea Level Pressure  
Sea Level Pressure 30.05 in    
Wind  
Wind Speed 9 mph (SW)    
Max Wind Speed 16 mph    
Max Gust Speed 23 mph    
Visibility 10 miles    
Events      
Averages and records for this station are not official NWS values.
T = Trace of Precipitation, MM = Missing Value Source: NWS Daily Summary

Daily Weather History Graph

Daily Weather History Graph

Search for Another Location

Airport or City:

Trip Planner

Search our weather history database for the weather conditions in past years. The results will help you decide how hot, cold, wet, or windy it might be!

Date:

Astronomy

Jun. 02, 2014 Rise Set
Actual Time 6:53 AM CDT 8:52 PM CDT
Civil Twilight 6:25 AM CDT 9:19 PM CDT
Nautical Twilight 5:52 AM CDT 9:53 PM CDT
Astronomical Twilight 5:17 AM CDT 10:28 PM CDT
Moon 11:11 AM CDT (6/2) No Moon Set
Length of Visible Light 14h 54m
Length of Day
13h 59m
Waxing Crescent, 22% of the Moon is Illuminated
Jun 2
Waxing Crescent
Jun 5
First Quarter
Jun 12
Full
Jun 19
Last Quarter
Jun 27
New

Hourly Weather History & Observations

Time (CDT) Temp. Heat Index Dew Point Humidity Pressure Visibility Wind Dir Wind Speed Gust Speed Precip Events Conditions
12:15 AM 81.5 °F - 52.7 °F 37% 30.03 in 10.0 mi South 15.0 mph - N/A   Clear
12:35 AM 80.2 °F - 52.7 °F 38% 30.02 in 10.0 mi South 10.4 mph - N/A   Clear
12:55 AM 79.3 °F - 52.7 °F 39% 30.02 in 10.0 mi SSW 6.9 mph - N/A   Clear
1:15 AM 79.7 °F - 53.2 °F 40% 30.02 in 10.0 mi SW 10.4 mph - N/A   Clear
1:35 AM 78.3 °F - 53.8 °F 43% 30.01 in 10.0 mi SW 11.5 mph - N/A   Clear
1:55 AM 78.3 °F - 53.6 °F 42% 30.02 in 10.0 mi SSW 6.9 mph - N/A   Clear
2:15 AM 77.4 °F - 54.0 °F 44% 30.01 in 10.0 mi SW 11.5 mph - N/A   Clear
2:35 AM 77.0 °F - 54.5 °F 46% 30.02 in 10.0 mi WSW 6.9 mph - N/A   Clear
2:55 AM 77.4 °F - 54.5 °F 45% 30.01 in 10.0 mi SSW 12.7 mph - N/A   Clear
3:15 AM 77.2 °F - 52.0 °F 41% 30.02 in 10.0 mi West 3.5 mph - N/A   Clear
3:35 AM 75.4 °F - 51.4 °F 43% 30.02 in 10.0 mi SW 5.8 mph - N/A   Clear
3:55 AM 75.9 °F - 53.2 °F 45% 30.02 in 10.0 mi WSW 6.9 mph - N/A   Clear
4:15 AM 74.1 °F - 53.1 °F 48% 30.03 in 10.0 mi SW 3.5 mph - N/A   Clear
4:35 AM 74.1 °F - 53.6 °F 49% 30.03 in 10.0 mi SW 9.2 mph - N/A   Clear
4:55 AM 72.0 °F - 52.5 °F 50% 30.03 in 10.0 mi WSW 6.9 mph - N/A   Clear
5:15 AM 73.2 °F - 52.7 °F 48% 30.04 in 10.0 mi SW 5.8 mph - N/A   Clear
5:35 AM 73.6 °F - 52.0 °F 47% 30.04 in 10.0 mi SW 6.9 mph - N/A   Clear
5:55 AM 72.7 °F - 51.8 °F 48% 30.04 in 10.0 mi SW 9.2 mph - N/A   Clear
6:15 AM 74.5 °F - 52.0 °F 45% 30.04 in 10.0 mi SW 8.1 mph - N/A   Clear
6:35 AM 74.7 °F - 52.7 °F 46% 30.04 in 10.0 mi WSW 11.5 mph - N/A   Clear
6:55 AM 73.8 °F - 52.2 °F 47% 30.05 in 10.0 mi WSW 12.7 mph - N/A   Clear
7:15 AM 74.7 °F - 52.0 °F 45% 30.06 in 10.0 mi SW 12.7 mph - N/A   Clear
7:35 AM 76.5 °F - 51.8 °F 42% 30.06 in 10.0 mi SW 12.7 mph - N/A   Clear
7:55 AM 78.8 °F - 51.4 °F 38% 30.07 in 10.0 mi SW 10.4 mph - N/A   Clear
8:15 AM 79.2 °F - 51.8 °F 38% 30.08 in 10.0 mi Calm Calm - N/A   Clear
8:35 AM 81.7 °F - 51.8 °F 35% 30.08 in 10.0 mi SW 9.2 mph - N/A   Scattered Clouds
8:55 AM 83.3 °F - 50.9 °F 32% 30.09 in 10.0 mi SW 4.6 mph - N/A   Scattered Clouds
9:15 AM 85.6 °F - 50.0 °F 29% 30.09 in 10.0 mi WSW 6.9 mph - N/A   Clear
9:35 AM 86.7 °F - 51.1 °F 29% 30.10 in 10.0 mi West 8.1 mph - N/A   Clear
9:55 AM 87.8 °F - 49.3 °F 26% 30.11 in 10.0 mi West 8.1 mph - N/A   Clear
10:15 AM 89.4 °F - 47.8 °F 24% 30.10 in 10.0 mi WSW 8.1 mph - N/A   Clear
10:35 AM 92.3 °F - 46.4 °F 21% 30.09 in 10.0 mi WSW 10.4 mph - N/A   Clear
10:55 AM 92.3 °F - 47.3 °F 21% 30.09 in 10.0 mi SW 12.7 mph 17.3 mph N/A   Clear
11:15 AM 93.0 °F - 46.2 °F 20% 30.09 in 10.0 mi WSW 11.5 mph 17.3 mph N/A   Clear
11:55 AM 95.7 °F - 42.8 °F 16% 30.09 in 10.0 mi West 9.2 mph - N/A   Clear
12:15 PM 96.4 °F - 34.3 °F 11% 30.09 in 10.0 mi North 9.2 mph - N/A   Clear
12:35 PM 97.2 °F - 32.0 °F 10% 30.09 in 10.0 mi NNE 10.4 mph - N/A   Clear
1:15 PM 98.2 °F - 32.2 °F 10% 30.08 in 10.0 mi North 5.8 mph - N/A   Clear
1:35 PM 100.2 °F - 30.0 °F 8% 30.08 in 10.0 mi NNE 6.9 mph - N/A   Clear
1:55 PM 100.6 °F - 29.8 °F 8% 30.07 in 10.0 mi East 10.4 mph - N/A   Clear
2:15 PM 100.0 °F - 29.8 °F 8% 30.07 in 10.0 mi ENE 4.6 mph 18.4 mph N/A   Clear
2:35 PM 100.0 °F - 27.1 °F 8% 30.06 in 10.0 mi NE 9.2 mph - N/A   Clear
2:55 PM 101.8 °F - 23.5 °F 6% 30.06 in 10.0 mi North 11.5 mph 17.3 mph N/A   Clear
3:15 PM 102.6 °F - 20.5 °F 5% 30.06 in 10.0 mi NE 11.5 mph 19.6 mph N/A   Clear
3:35 PM 101.5 °F - 21.2 °F 6% 30.05 in 10.0 mi NW 5.8 mph 17.3 mph N/A   Clear
3:55 PM 99.9 °F - 21.4 °F 6% 30.04 in 10.0 mi ESE 3.5 mph - N/A   Clear
4:15 PM 101.7 °F - 20.3 °F 5% 30.04 in 10.0 mi North 10.4 mph 19.6 mph N/A   Clear
4:35 PM 100.9 °F - 19.6 °F 5% 30.04 in 10.0 mi Calm Calm - N/A   Clear
4:55 PM 102.2 °F - 19.9 °F 5% 30.03 in 10.0 mi NE 9.2 mph - N/A   Clear
5:15 PM 102.2 °F - 19.4 °F 5% 30.03 in 10.0 mi North 10.4 mph - N/A   Clear
5:35 PM 100.8 °F - 18.7 °F 5% 30.02 in 10.0 mi North 11.5 mph 19.6 mph N/A   Clear
5:55 PM 101.7 °F - 18.7 °F 5% 30.02 in 10.0 mi ENE 11.5 mph 16.1 mph N/A   Clear
6:15 PM 100.8 °F - 18.7 °F 5% 30.02 in 10.0 mi NNE 11.5 mph - N/A   Clear
6:35 PM 100.6 °F - 18.5 °F 5% 30.02 in 10.0 mi NNE 6.9 mph - N/A   Clear
6:55 PM 100.0 °F - 19.4 °F 6% 30.01 in 10.0 mi NNE 3.5 mph - N/A   Clear
7:15 PM 99.0 °F - 19.6 °F 6% 30.01 in 10.0 mi ENE 8.1 mph - N/A   Clear
7:55 PM 97.9 °F - 20.8 °F 6% 30.02 in 10.0 mi NNE 6.9 mph - N/A   Clear
8:15 PM 96.8 °F - 21.7 °F 7% 30.03 in 10.0 mi ENE 8.1 mph - N/A   Clear
8:35 PM 94.5 °F - 21.4 °F 7% 30.04 in 10.0 mi ESE 8.1 mph - N/A   Clear
8:55 PM 88.7 °F 87.1 °F 56.3 °F 33% 30.04 in 10.0 mi SE 15.0 mph 23.0 mph N/A   Clear
9:15 PM 86.5 °F 85.4 °F 57.7 °F 37% 30.05 in 10.0 mi SSE 12.7 mph 17.3 mph N/A   Clear
9:35 PM 84.9 °F 84.2 °F 58.1 °F 40% 30.05 in 10.0 mi SSE 11.5 mph - N/A   Clear
9:55 PM 83.7 °F 83.3 °F 58.5 °F 42% 30.06 in 10.0 mi SSE 16.1 mph 19.6 mph N/A   Clear
10:15 PM 82.6 °F 82.5 °F 58.6 °F 44% 30.07 in 10.0 mi SSE 13.8 mph 20.7 mph N/A   Clear
10:35 PM 82.4 °F 82.2 °F 58.1 °F 43% 30.07 in 10.0 mi SSE 15.0 mph 19.6 mph N/A   Clear
10:55 PM 81.0 °F 81.1 °F 57.9 °F 45% 30.08 in 10.0 mi South 9.2 mph - N/A   Clear
11:15 PM 80.6 °F 80.8 °F 57.2 °F 45% 30.08 in 10.0 mi SSE 6.9 mph - N/A   Clear
11:35 PM 79.0 °F - 57.0 °F 47% 30.09 in 10.0 mi South 5.8 mph - N/A   Clear